Regional Weather Roundup
Issued by NWS Albany, NY

Home | Current Version | Previous Version | Text Only | Print | Product List | Glossary On
Versions: 1 2 3 4 5 6 7 8 9 10 11 12 13 14 15 16 17 18 19 20 21 22 23 24 25 26 27 28 29 30 31 32 33 34 35 36 37 38 39 40 41 42 43 44 45 46 47 48 49 50
000
ASUS41 KALY 221310
RWRALY

NEW YORK STATE HOURLY WEATHER ROUNDUP
NATIONAL WEATHER SERVICE ALBANY NY
900 AM EDT FRI MAY 22 2015

NOTE: "FAIR" INDICATES FEW OR NO CLOUDS BELOW 12,000 FEET WITH NO
SIGNIFICANT WEATHER AND/OR NO OBSTRUCTIONS TO VISIBILITY.

NYZ032-033-038>043-046>054-057>066-NYZ062>081-221400-
EAST


CITY           SKY/WX    TMP DP  RH WIND       PRES   REMARKS
ALBANY         MOSUNNY   60  40  47 W13       29.88R
GLENS FALLS    SUNNY     58  40  51 SW5       29.85S
POUGHKEEPSIE   SUNNY     59  45  59 S6        29.89S
NEWBURGH       SUNNY     57  45  62 W14       29.92R
MONTGOMERY     SUNNY     60  43  53 NW9       29.90S
WHITE PLAINS   SUNNY     60  42  51 NW16      29.90R
ISLIP          SUNNY     62  46  55 NW10      29.88R
NEW YORK CITY  SUNNY     61  41  47 NW10      29.91S
CENTRAL PARK   SUNNY     60  40  47 VRB3      29.94S
$$

NYZ005>009-017-018-044>046-055-056-221400-
CENTRAL


CITY           SKY/WX    TMP DP  RH WIND       PRES   REMARKS
FULTON         MOSUNNY   53  38  56 N10       29.97R
SYRACUSE       MOSUNNY   54  42  64 W9        29.95R
ROME           SUNNY     52  41  66 W12       29.93R
ELMIRA         SUNNY     57  40  52 SW10      29.96S
BINGHAMTON     SUNNY     52  39  61 W12       29.94R
MONTICELLO     SUNNY     52  39  62 W12G21    29.94S
$$

NYZ026>034-041>043-221400-
NORTH


CITY           SKY/WX    TMP DP  RH WIND       PRES   REMARKS
WATERTOWN      MOSUNNY   53  33  46 N9        29.96R
FORT DRUM      NOT AVBL
MASSENA        PTSUNNY   49  35  58 NW8       29.94R
SARANAC LAKE   CLOUDY    46  35  65 NW8       29.86R
PLATTSBURGH    PTSUNNY   56  39  53 NW10G18   29.85R
$$

NYZ001>004-010>016-019>021-221400-
WEST


CITY           SKY/WX    TMP DP  RH WIND       PRES   REMARKS
NIAGARA FALLS  MOSUNNY   50  37  61 NW8       30.02R
BUFFALO        MOSUNNY   51  34  52 NW8       30.02R
DUNKIRK        PTSUNNY   49  32  52 W13G18    30.05R
JAMESTOWN      MOSUNNY   48  36  61 W12       30.04R
WELLSVILLE     SUNNY     52  36  54 W17       30.00R
ROCHESTER      MOSUNNY   52  37  56 NW7       30.00R
PENN YAN       MOSUNNY   54  38  54 NW14G22   29.97R
$$

             KEY
       WCI = WIND CHILL INDEX
       VSB = VISIBILITY
       HX  = HEAT INDEX
$$



USA.gov is the U.S. government's official web portal to all federal, state and local government web resources and services.